Wind_Speed
26 25 24 23 22 21 22 22 21 21 22 20 19 17 15 15 15 14 13 12 12 11 11 12 12 13 12 11 9 9 10 9 8 9 10 10 9 9 10 11 11 12 12 12 11 10 10 11 13 16 20 22 24 23 22 22 22 22 21 21 19 18 18 18 18 17 17 18 20 21 21 20 20 19
26 25 24 24 24 23 24 24 23 24 25 24 24 22 20 18 18 17 16 15 13 11 11 11 11 11 11 12 12 11 11 10 8 9 10 10 9 8 9 11 11 12 13 14 14 13 12 12 12 14 17 20 23 24 24 23 23 23 22 23 22 20 18 18 18 17 16 17 20 22 22 21 22 21
24 23 23 24 24 24 24 24 25 24 24 25 26 26 25 22 22 21 19 19 17 13 12 11 11 11 11 13 14 14 13 12 10 10 11 11 9 8 9 11 11 12 13 14 15 15 14 14 13 14 15 18 20 22 24 24 25 25 24 25 25 24 21 20 20 19 18 17 18 20 22 24 24 23
23 24 24 24 24 23 22 22 24 25 25 25 25 26 26 25 25 24 22 22 21 17 15 14 13 12 12 14 15 15 15 15 13 11 12 14 13 11 11 12 12 12 12 13 14 15 15 15 15 14 15 16 17 19 21 23 24 26 26 26 27 27 25 23 23 23 22 20 18 18 20 23 25 25
22 24 25 24 24 22 20 20 22 23 24 24 23 24 25 24 25 25 23 22 22 20 18 17 16 15 14 15 16 17 17 18 16 14 13 15 16 15 13 13 13 13 13 12 13 14 15 16 16 15 15 15 16 17 19 20 22 23 25 26 26 27 27 26 26 25 25 24 21 19 19 21 23 25
22 22 23 23 21 20 20 22 22 21 22 24 23 23 23 23 23 24 23 22 20 20 18 17 17 16 16 17 17 18 19 19 18 17 16 16 18 18 16 16 15 14 15 15 14 14 14 14 15 15 15 15 15 16 17 18 20 21 23 24 25 25 26 26 27 27 27 26 25 24 22 21 22 25
21 22 22 21 20 19 21 24 24 21 21 23 24 23 22 22 23 24 25 24 21 19 18 17 16 16 16 18 18 18 19 20 19 19 18 19 20 21 19 18 17 16 15 16 17 17 16 15 15 15 16 16 17 18 18 18 19 20 22 23 24 24 24 25 26 27 27 27 27 27 26 25 23 24
21 21 21 21 20 20 22 24 24 22 22 22 23 23 21 22 23 24 25 26 24 22 19 17 16 16 16 18 18 17 18 20 21 20 20 21 22 22 20 19 18 18 16 17 18 19 19 19 17 17 17 17 18 19 20 20 21 21 22 23 23 24 24 25 25 25 26 27 27 27 28 28 27 25
20 19 19 19 19 19 21 22 21 21 22 22 22 21 20 20 20 22 24 25 24 23 21 19 18 17 16 17 17 18 18 19 21 21 21 23 22 21 19 17 19 20 19 19 19 19 20 20 20 20 19 19 20 20 21 21 22 22 22 22 23 24 25 25 25 25 25 26 26 27 28 28 29 28
18 18 19 18 18 18 20 21 20 20 21 22 21 20 20 20 19 20 23 24 24 23 22 21 19 19 19 18 18 18 18 19 20 20 22 24 24 23 21 20 21 22 22 21 20 20 20 20 21 21 22 22 22 23 23 23 23 23 22 22 23 24 25 26 26 27 27 27 27 28 28 28 29 29
20 20 20 19 18 19 19 20 20 20 21 21 21 21 21 21 21 21 22 23 23 22 21 20 19 19 20 20 20 19 19 19 20 20 21 22 22 23 24 25 25 23 24 24 23 22 22 22 22 22 23 24 24 25 25 25 25 25 25 24 25 25 25 26 27 28 29 29 30 30 30 31 30 30
24 24 24 22 20 19 19 19 19 20 20 20 21 22 21 22 22 22 21 21 21 20 19 18 17 17 18 20 21 21 20 21 23 23 23 23 23 24 25 27 27 26 26 26 27 26 25 25 25 25 25 26 27 27 27 27 28 28 28 27 27 27 27 27 28 29 30 31 31 32 33 33 33 33
26 26 26 26 24 21 20 20 21 22 22 22 21 20 19 19 21 21 21 20 19 18 18 18 17 17 18 18 19 20 21 23 24 24 23 24 25 25 24 24 26 27 25 23 25 28 29 28 26 27 29 30 29 29 29 29 30 30 29 29 30 30 29 29 30 30 30 30 31 31 33 33 34 34
27 26 25 25 25 24 23 24 24 25 25 25 24 22 20 18 18 19 19 18 18 17 17 18 17 17 19 20 20 21 22 24 24 23 23 24 24 24 24 24 25 25 25 23 21 23 28 30 29 29 31 32 32 33 33 33 32 31 30 30 30 31 31 31 31 31 30 30 30 30 31 31 32 33
25 27 27 25 25 25 25 25 26 26 27 27 27 26 25 24 22 21 20 20 20 18 18 19 20 21 24 26 25 24 23 23 25 25 24 23 24 24 24 25 24 24 25 25 20 18 21 27 30 30 32 34 34 35 36 35 33 32 31 31 31 32 33 33 34 33 33 32 32 31 31 31 31 32
19 22 26 27 27 28 28 27 27 28 29 29 30 29 29 29 28 27 27 26 25 23 21 20 22 25 28 29 28 26 24 22 23 25 24 23 25 25 25 25 24 23 24 23 20 17 17 21 26 28 31 33 35 36 35 33 32 32 32 32 33 33 34 34 35 36 36 35 35 34 33 33 33 33
16 17 18 21 23 25 25 25 25 26 28 29 30 31 32 32 32 32 31 31 30 29 27 25 25 27 28 28 27 25 24 23 23 24 25 24 24 25 26 27 24 22 23 24 23 21 20 21 26 28 28 29 32 35 35 32 30 31 31 32 34 34 35 36 36 37 37 37 37 37 37 36 36 35
15 16 15 15 17 18 19 19 19 20 22 23 24 27 29 32 34 35 35 34 34 33 33 33 33 33 32 30 28 25 24 24 25 26 26 23 22 23 26 28 27 24 25 27 25 25 24 23 26 28 25 23 26 30 32 32 30 29 30 30 32 34 34 35 36 37 38 38 38 38 38 38 38 38
13 14 14 15 15 15 16 18 19 19 19 19 19 20 22 25 27 30 33 35 36 36 37 37 38 38 37 35 33 29 27 27 27 27 26 24 22 24 28 29 28 27 28 28 26 27 28 26 25 29 27 24 25 26 26 29 31 30 29 30 31 33 34 34 35 36 37 38 38 37 38 38 38 39
11 12 12 13 14 14 15 16 18 21 22 20 18 19 21 22 22 24 27 31 35 36 37 39 39 39 39 38 37 35 33 32 31 28 26 24 25 28 30 30 31 29 29 29 28 29 32 30 27 28 30 29 29 29 26 27 31 30 30 31 32 33 33 33 34 35 36 36 37 37 37 37 37 37
10 11 12 13 13 14 16 17 18 22 24 21 18 20 22 23 23 24 24 26 30 33 35 37 38 39 39 39 39 39 37 36 36 34 31 29 29 30 30 30 33 33 31 30 30 31 34 34 31 29 30 31 31 31 29 29 31 31 30 31 33 34 34 33 33 34 35 35 35 35 35 36 36 36
9 11 13 15 15 14 16 19 21 24 26 23 19 18 21 22 23 23 23 23 25 28 31 34 35 37 38 39 40 41 40 38 37 38 38 37 36 34 32 32 35 37 34 32 33 34 34 35 34 30 29 32 33 33 32 30 29 30 30 30 31 33 34 34 34 34 35 35 35 34 35 36 36 37
9 10 12 14 15 15 15 18 21 24 27 27 24 22 21 22 23 22 21 22 23 23 25 27 30 32 34 35 37 39 42 41 39 39 40 39 39 38 37 37 37 38 36 33 34 37 35 34 34 31 28 30 31 32 32 31 30 30 29 30 33 35 35 35 34 35 35 36 36 36 36 36 37 38
10 11 11 12 14 16 16 17 19 21 24 27 29 28 25 24 23 21 21 24 24 24 24 24 26 28 29 30 31 33 36 39 40 41 41 41 41 40 40 41 40 40 39 34 32 36 37 35 34 32 30 30 29 28 28 29 31 28 24 25 30 33 34 35 35 35 35 36 36 37 36 36 38 40
11 12 11 9 12 16 18 19 21 22 24 25 28 30 29 27 26 26 26 28 27 26 26 25 25 26 27 29 31 31 32 33 35 38 40 42 43 43 42 41 40 40 42 38 33 36 37 35 33 31 31 31 30 28 26 26 27 25 23 25 27 28 30 32 32 34 34 34 35 36 37 38 39 41
12 12 12 12 14 16 17 19 21 22 24 26 27 29 30 30 31 31 31 31 30 28 26 25 25 26 26 27 28 29 30 32 33 34 37 38 41 44 45 44 42 41 41 38 36 38 40 37 34 32 32 32 31 29 27 26 25 24 25 28 28 28 29 28 26 28 31 33 34 36 36 38 40 41
13 14 15 16 15 14 15 18 19 19 20 22 22 23 24 25 27 29 31 31 31 29 27 26 27 28 27 27 28 27 28 30 33 36 37 36 35 38 41 44 46 48 45 39 37 37 37 36 36 35 35 33 31 30 29 27 25 24 25 27 28 29 30 28 24 23 24 26 29 32 35 38 40 41
12 13 15 15 13 11 12 15 16 16 16 16 16 16 16 16 18 22 25 28 28 28 27 27 28 29 28 29 31 32 31 30 31 33 33 32 32 33 36 39 42 45 47 45 42 39 35 34 36 36 34 33 33 32 31 28 26 25 25 26 27 27 27 25 22 19 18 19 20 23 28 33 36 39
9 10 12 11 9 8 10 12 14 14 14 14 14 14 14 14 15 16 19 22 24 25 25 25 26 27 29 29 30 34 35 33 33 33 32 33 33 34 36 38 38 39 42 44 44 44 41 40 40 37 34 33 34 34 32 29 27 27 26 26 25 23 22 22 20 18 18 18 18 19 21 24 28 32
7 8 9 9 10 11 13 13 12 12 12 11 12 12 12 12 13 12 12 15 18 22 23 23 23 25 26 26 26 29 33 34 35 35 34 36 37 34 34 36 36 36 39 40 41 43 44 45 45 43 40 38 37 37 35 30 28 28 27 26 25 24 23 24 25 25 24 22 19 19 20 22 24 28
11 11 11 12 13 13 14 13 11 10 10 10 9 8 8 9 10 10 9 10 12 16 19 21 23 24 25 24 24 25 28 31 33 33 32 35 37 35 33 36 37 37 37 37 38 41 43 43 43 42 42 41 40 41 38 34 32 31 28 26 26 24 23 22 23 26 27 24 22 22 22 23 24 25
13 10 10 10 10 11 11 11 11 10 10 10 9 9 8 8 9 10 11 12 12 14 17 20 22 24 24 23 22 23 26 27 28 30 32 34 35 31 30 36 42 43 40 37 38 41 43 44 42 41 41 40 40 41 40 36 35 33 30 31 33 32 31 30 28 29 30 29 30 30 27 25 24 24
12 10 11 11 11 12 12 13 13 13 13 13 12 12 11 10 10 10 10 11 13 15 17 20 23 25 26 26 25 26 27 26 25 26 28 32 34 32 31 35 41 44 41 39 39 41 42 42 42 42 42 40 38 39 40 39 39 35 32 34 36 35 36 37 34 32 30 30 31 32 30 27 26 26
12 11 12 13 12 13 14 15 15 16 16 16 16 15 14 14 14 13 13 12 12 13 14 16 18 20 23 25 26 27 29 29 28 27 27 30 32 33 33 34 37 39 39 39 41 40 39 40 41 41 42 41 41 41 41 41 41 36 33 35 36 34 35 37 34 32 31 29 29 32 34 33 31 29
15 13 13 13 13 14 14 15 16 16 17 18 18 17 16 16 15 15 15 15 14 14 14 14 15 16 18 20 22 23 25 27 28 29 30 31 31 31 31 31 32 34 37 40 42 39 35 34 35 35 37 39 39 40 41 42 40 36 36 39 40 39 40 41 39 38 37 34 31 31 33 35 34 31
20 19 18 18 18 19 18 18 18 18 18 19 19 18 18 17 17 17 16 15 14 14 14 14 14 15 16 17 18 19 20 22 23 25 27 29 30 31 32 31 30 31 31 34 36 35 32 32 32 32 35 37 36 37 41 42 38 37 38 38 36 37 40 39 37 36 34 32 31 30 30 33 33 30
21 21 21 21 22 22 22 22 22 21 21 20 20 19 19 18 18 17 16 16 15 14 14 14 14 14 14 14 14 15 16 17 18 19 20 22 23 25 26 28 29 30 29 29 30 30 31 32 30 26 26 30 32 35 37 36 32 32 34 32 29 32 34 32 30 29 26 24 26 28 27 28 29 27
21 21 21 21 21 21 21 21 22 22 21 21 21 21 20 20 19 19 18 17 17 16 16 15 15 15 14 14 13 13 13 13 14 15 17 18 19 20 20 21 22 23 23 23 24 24 23 24 23 20 19 19 20 21 22 22 21 25 29 28 27 28 28 26 27 28 25 22 24 26 25 25 25 24
19 19 19 19 19 20 20 20 20 21 21 21 21 21 20 20 20 20 20 19 19 18 18 17 16 16 16 15 15 14 13 13 13 13 14 15 16 17 19 20 20 20 19 19 20 20 22 23 23 22 21 20 17 16 16 17 19 23 25 24 23 25 26 25 26 27 27 26 27 28 28 29 30 29
15 15 16 16 16 17 18 18 19 19 20 20 21 21 21 21 21 20 20 20 20 20 19 19 18 18 17 17 16 15 15 15 14 14 14 14 15 16 17 18 19 19 19 19 19 19 21 23 23 22 23 23 23 22 22 23 25 27 26 24 22 24 24 23 23 24 26 28 29 30 32 34 35 35
13 12 13 14 14 15 16 17 17 18 18 19 19 20 21 21 21 21 21 21 21 20 20 20 19 19 19 19 18 17 16 15 15 14 14 14 14 15 15 16 17 17 17 18 18 17 18 19 19 20 21 22 24 24 24 24 25 25 24 24 24 24 24 24 24 26 29 30 31 33 35 35 35 36
13 12 13 15 16 16 17 17 17 17 17 18 18 18 19 19 20 20 20 20 20 20 20 20 20 19 19 19 19 19 18 17 16 16 15 15 15 15 15 15 16 16 16 16 17 17 18 17 17 17 17 18 20 20 19 20 21 21 20 19 19 19 22 25 25 24 25 27 27 29 29 28 27 28
15 14 14 15 17 17 17 18 18 18 18 18 18 18 18 17 18 18 18 19 19 19 19 19 19 19 19 19 19 19 18 18 17 17 16 16 16 16 16 16 16 16 16 16 16 16 17 17 17 16 16 16 17 16 16 17 18 19 18 16 14 15 18 22 23 21 20 21 21 23 24 23 24 25
16 16 15 16 17 18 18 18 18 18 18 18 18 18 18 18 17 17 17 18 18 18 18 18 18 18 18 18 18 18 17 17 17 16 15 15 15 15 16 16 16 16 16 16 16 16 16 16 16 16 15 15 15 15 16 16 17 17 17 17 17 17 18 18 19 19 18 18 18 19 20 22 24 26
16 16 17 17 18 18 19 20 19 19 19 19 19 19 19 19 18 18 18 18 18 18 18 18 18 17 17 17 17 17 17 17 16 15 15 14 13 13 14 14 14 14 15 15 16 16 15 15 15 15 15 15 15 15 15 15 15 16 16 16 17 17 16 15 16 16 15 15 16 17 17 19 22 24
Wind_Direction
246 245 243 244 246 247 250 249 246 246 245 243 243 245 247 251 256 258 256 252 250 248 239 236 245 252 258 265 268 276 291 298 289 263 247 243 248 251 247 241 239 240 241 239 236 231 226 226 228 227 227 228 226 225 226 232 242 247 251 255 259 263 263 259 258 258 253 244 234 232 240 243 243 246
246 248 246 246 246 246 247 249 249 250 252 249 246 246 247 248 251 256 260 259 255 252 247 239 238 243 246 254 263 270 279 289 289 274 261 248 242 247 249 247 242 236 238 238 236 235 233 230 230 229 231 233 232 229 227 227 233 241 248 253 258 263 266 265 264 265 264 256 242 236 238 242 245 247
243 245 246 247 247 245 243 244 247 251 253 253 250 249 250 249 249 251 255 260 257 252 251 248 243 242 239 245 257 265 270 276 278 275 271 263 253 244 243 249 248 241 239 239 238 235 233 233 234 233 233 235 235 234 232 230 231 234 240 245 251 258 263 264 265 267 269 267 257 247 242 240 242 247
241 245 248 249 248 244 240 240 245 249 251 251 250 249 249 249 249 249 250 254 256 252 251 251 249 247 244 240 243 253 264 270 271 270 270 269 260 246 241 244 248 248 245 243 243 241 237 235 235 235 236 237 238 237 235 234 233 234 236 239 244 251 256 259 262 266 269 270 267 260 254 247 245 247
241 246 246 247 246 243 239 238 241 245 248 249 249 248 247 246 247 249 247 249 254 254 249 249 248 246 245 242 239 245 257 264 267 268 269 268 262 249 243 244 244 246 248 246 246 246 243 240 237 236 236 237 238 238 237 237 236 236 237 240 244 248 251 254 257 261 265 267 268 264 260 257 254 251
243 247 246 242 240 239 238 239 240 241 242 245 247 247 245 243 243 246 246 247 251 253 249 245 246 245 241 240 240 246 254 259 261 265 267 267 264 255 247 246 246 245 247 247 247 248 248 247 243 239 237 237 238 237 237 237 238 239 240 243 246 250 252 254 255 257 259 261 263 262 260 259 257 254
243 247 246 240 235 232 236 242 244 240 238 240 243 244 243 243 245 248 249 248 248 250 249 244 243 245 242 240 242 246 253 256 255 260 263 264 266 261 250 245 247 246 246 249 250 249 249 249 249 247 243 240 240 240 240 239 239 239 241 243 246 249 252 254 256 257 258 259 260 261 261 260 257 254
239 242 242 241 237 233 237 245 247 244 241 239 238 240 240 243 248 251 251 249 248 249 250 245 242 242 243 246 246 242 246 253 253 254 257 259 264 264 254 245 245 245 245 247 249 250 249 248 249 250 250 247 244 243 243 243 242 240 239 240 242 246 249 252 255 257 259 260 260 261 262 261 259 256
234 235 237 241 241 239 240 243 242 241 243 241 239 238 238 239 245 249 249 249 250 251 250 245 241 240 242 246 247 242 240 247 251 252 250 252 258 260 253 247 248 247 245 244 246 247 248 248 248 248 249 250 249 248 247 246 246 245 242 241 240 242 245 248 252 255 257 259 260 261 262 262 262 261
233 233 236 239 240 240 241 241 239 239 240 241 239 237 237 237 237 243 248 249 250 252 251 248 243 241 243 244 245 244 240 240 243 244 245 249 252 252 251 253 256 254 251 247 246 248 249 249 249 249 249 250 250 251 251 251 250 250 248 245 244 242 243 245 248 250 252 254 256 259 260 262 263 263
235 237 240 242 240 238 238 237 236 237 237 236 237 236 236 238 237 240 245 248 248 248 248 249 247 246 246 246 245 245 244 242 240 237 239 244 247 250 254 258 258 257 257 255 251 249 249 250 250 250 250 251 250 250 251 251 252 252 252 251 249 247 246 245 245 246 248 251 252 254 256 259 261 262
239 239 239 240 239 238 240 239 235 234 234 232 235 237 236 237 238 239 240 240 242 243 243 244 245 246 247 247 247 246 242 240 240 238 236 238 244 252 259 262 260 258 259 260 258 254 251 249 249 250 250 250 250 249 250 251 251 251 252 253 253 252 251 249 248 247 248 249 250 252 253 255 257 259
243 242 241 241 242 239 237 237 234 233 234 232 232 234 234 236 238 239 238 236 237 240 241 241 242 243 244 245 245 243 239 237 241 242 239 240 246 251 254 259 263 262 257 255 258 259 257 254 252 251 251 251 250 250 249 249 250 250 251 252 253 253 253 253 253 252 252 251 251 252 253 253 255 256
245 245 245 245 247 245 240 238 237 237 238 239 238 234 231 232 234 234 236 235 235 237 240 241 240 240 243 247 247 245 244 244 246 244 241 245 250 249 247 251 259 263 260 255 254 256 259 261 258 255 254 252 250 249 248 248 250 250 251 253 254 254 254 254 254 254 254 253 253 252 253 253 254 255
248 250 250 251 252 253 252 250 248 246 245 246 247 244 241 238 236 235 237 238 236 237 240 244 245 245 249 256 258 254 249 247 248 248 246 247 251 249 246 248 252 258 263 263 258 252 255 261 261 257 255 255 253 250 250 250 251 253 253 253 254 254 254 254 254 254 253 252 252 252 251 252 253 253
250 252 254 256 258 260 261 260 259 256 253 252 251 252 251 250 247 244 243 244 242 240 241 245 248 252 255 259 260 256 250 246 248 251 250 247 249 248 247 250 251 253 259 262 259 253 249 252 257 258 256 257 258 257 256 253 252 253 252 252 252 252 252 252 251 252 252 252 252 252 252 252 252 253
250 252 254 256 256 259 261 262 262 261 260 259 257 256 256 255 255 253 250 250 249 246 245 244 246 251 255 257 256 252 249 247 247 250 250 248 249 249 249 252 251 248 253 257 255 254 250 247 253 260 260 258 257 259 260 259 257 255 254 253 253 252 252 252 251 250 251 251 252 252 253 253 253 253
246 248 250 251 251 253 254 252 253 256 259 261 261 260 258 256 256 256 255 254 254 253 251 249 249 250 251 252 252 249 247 249 251 252 252 249 249 250 253 256 254 248 249 254 254 255 253 247 247 255 261 260 256 257 258 259 258 258 257 254 252 253 253 252 252 251 250 249 250 250 252 252 253 253
245 245 248 250 251 253 252 250 249 251 254 256 258 259 260 258 256 255 255 256 255 255 255 255 255 254 253 252 252 251 251 252 255 257 254 250 248 251 254 256 255 252 250 250 250 252 254 249 243 248 255 255 256 261 261 258 256 255 254 252 249 250 252 253 253 251 249 248 249 249 250 251 252 252
250 250 251 253 255 256 257 260 262 260 256 254 255 256 257 257 257 257 258 257 257 256 255 256 257 257 258 257 256 255 252 251 253 255 254 251 250 251 251 252 252 253 252 250 247 249 253 251 244 249 255 252 252 258 261 262 262 255 249 249 248 248 250 252 252 251 249 248 249 250 250 251 251 251
256 253 250 251 255 258 259 261 264 265 262 258 258 259 258 258 258 259 260 261 261 260 259 258 257 257 258 258 259 258 256 253 251 249 248 250 252 251 250 250 251 252 251 251 249 247 252 254 250 251 257 254 251 253 254 258 265 261 251 248 249 250 250 250 250 250 249 249 250 252 253 253 252 252
262 262 258 256 257 258 256 252 250 254 259 260 260 261 262 262 261 260 261 261 263 264 264 264 263 261 259 257 257 258 257 255 252 249 247 249 251 251 250 250 252 253 251 251 251 248 250 256 257 255 258 256 252 252 253 253 257 261 258 251 248 250 251 251 250 249 249 250 251 252 253 253 253 252
261 264 266 268 270 270 268 264 259 257 258 260 261 260 259 259 260 263 264 263 262 263 265 268 270 270 268 264 260 258 257 256 254 251 250 249 249 249 249 249 250 252 251 248 249 249 250 254 256 255 255 256 255 254 256 254 252 256 261 259 253 250 249 250 251 251 250 249 249 249 249 250 250 250
281 280 281 283 281 278 279 279 274 267 261 258 258 258 257 257 257 257 257 258 258 260 261 263 266 270 270 268 265 262 259 256 254 252 250 249 248 247 248 248 247 249 249 246 246 250 251 251 254 255 253 254 257 256 254 253 252 253 257 259 258 254 251 249 248 248 249 249 248 247 247 246 246 248
292 290 291 289 283 284 286 284 279 273 267 260 256 253 252 252 251 248 246 246 249 253 256 258 262 265 265 264 262 260 259 257 256 255 252 249 248 247 247 247 246 247 249 246 244 248 250 249 250 251 250 251 255 256 252 251 251 251 249 250 256 261 262 258 251 250 252 252 251 249 247 246 247 249
295 293 291 289 289 293 295 293 288 281 273 266 260 255 251 249 249 250 249 248 249 253 257 261 264 264 264 265 263 260 258 257 255 256 254 251 248 247 247 247 246 246 247 247 245 246 249 249 247 246 247 251 253 254 251 249 249 249 248 249 254 262 267 265 260 258 258 257 257 255 253 250 249 251
295 294 294 295 297 300 305 307 305 297 285 275 268 262 258 255 254 254 254 254 256 258 259 259 261 262 262 263 263 260 259 257 255 256 256 254 251 250 249 249 248 246 247 248 248 247 247 248 248 247 249 251 251 251 249 248 248 249 249 251 255 261 264 263 260 260 261 260 259 259 256 252 249 250
301 300 301 303 303 303 310 317 319 316 307 295 284 272 264 262 262 261 258 256 257 262 264 263 263 262 262 263 263 260 258 257 258 260 260 258 256 254 253 253 253 250 248 247 247 248 248 249 251 250 249 248 247 249 250 248 247 247 248 252 256 259 263 262 257 255 256 257 258 258 257 256 254 253
314 312 311 313 311 307 312 319 322 321 316 307 298 287 274 267 267 269 269 264 259 260 264 266 267 266 265 266 266 263 260 258 260 263 265 263 259 257 257 259 259 256 252 248 247 248 249 251 252 250 248 246 247 250 251 251 250 248 248 252 254 253 255 259 260 257 254 254 255 255 255 257 259 261
357 349 343 341 337 332 333 337 339 337 333 326 315 304 290 276 267 267 277 279 270 263 263 266 271 273 272 272 271 266 263 262 261 264 267 266 263 261 261 260 258 257 257 256 253 250 249 251 252 249 247 248 249 251 253 253 252 250 249 250 252 253 253 256 259 260 259 258 256 255 255 254 256 261
30 20 11 3 354 349 350 353 353 351 352 351 342 326 309 291 279 272 275 279 274 269 267 267 270 274 276 277 276 271 268 266 264 264 265 267 267 265 261 258 258 261 262 260 258 254 251 250 251 249 246 245 246 249 252 252 251 251 249 247 249 251 253 253 254 257 260 260 259 260 262 263 262 261
33 23 23 22 16 16 15 10 8 7 8 9 5 355 337 315 300 288 278 271 265 262 263 263 265 269 273 275 276 276 274 272 271 269 268 268 269 265 259 259 264 266 264 261 261 260 256 252 251 251 249 247 246 247 249 249 249 251 250 249 251 253 255 255 256 259 262 263 264 264 263 263 264 264
35 23 28 35 34 34 34 30 28 26 22 20 17 11 3 350 336 320 303 290 280 272 270 270 270 270 270 269 270 272 272 272 271 272 270 269 269 266 259 259 264 267 265 261 262 263 261 257 254 253 252 251 249 248 248 249 251 252 252 255 257 258 259 259 260 262 261 260 262 263 262 261 263 265
48 34 31 34 31 31 33 34 36 35 33 30 27 21 15 8 360 352 344 334 321 309 300 292 287 284 281 278 276 275 274 272 269 268 267 268 270 270 265 262 265 267 267 266 266 264 261 258 254 251 250 250 250 250 250 251 252 252 252 255 256 256 256 257 256 256 257 257 261 265 265 266 266 267
57 49 43 39 34 34 35 35 35 35 35 35 34 31 26 21 16 12 6 360 352 343 336 327 318 313 308 303 299 293 287 282 277 271 270 270 271 271 269 269 270 269 267 269 269 264 260 259 255 247 245 246 248 249 250 249 250 251 254 257 258 257 258 258 257 258 258 259 262 265 267 268 269 270
56 54 52 48 44 41 41 39 37 35 33 34 33 31 28 25 23 22 19 13 8 2 357 352 344 336 329 325 322 317 310 302 292 284 279 277 276 275 272 272 274 271 268 270 270 264 262 264 259 248 241 241 242 245 248 250 250 252 256 260 261 261 263 264 263 263 261 258 258 261 265 269 272 272
54 53 52 50 48 45 42 41 40 38 35 35 32 30 28 26 23 21 19 15 12 10 7 3 358 352 347 342 337 331 325 320 315 309 303 296 292 290 286 284 283 281 278 277 274 268 265 265 264 257 250 248 246 246 249 252 253 254 259 262 261 262 265 266 264 264 263 260 261 263 266 271 276 276
47 47 46 45 44 42 39 37 36 34 31 30 30 28 27 26 24 22 19 16 14 12 9 4 359 355 353 349 343 337 330 325 322 321 318 313 309 307 306 303 300 296 291 287 284 280 277 276 277 276 276 277 273 264 259 257 251 250 255 257 255 258 263 263 261 264 267 267 266 267 267 270 274 275
40 39 38 36 34 32 30 28 25 22 20 19 18 18 17 17 17 17 16 16 15 13 11 8 3 1 359 355 351 346 341 336 331 326 323 320 315 311 308 308 307 306 304 300 298 295 292 292 291 288 288 292 294 286 278 270 260 255 257 258 256 259 261 259 259 265 270 273 272 270 269 270 271 273
31 28 26 25 23 19 17 15 12 9 7 5 4 4 4 4 5 5 4 5 7 8 8 7 6 4 2 359 357 354 349 346 344 340 334 328 322 317 313 309 308 308 307 306 304 300 296 295 295 294 292 290 287 284 282 279 274 272 273 273 271 270 267 265 269 275 278 279 280 278 276 275 275 276
19 14 9 9 8 5 3 2 360 357 357 356 354 354 355 354 353 353 353 355 356 357 358 359 0 1 0 359 358 357 354 351 348 344 339 334 329 325 323 320 318 317 314 311 310 308 305 303 301 298 294 289 287 287 287 284 282 282 282 283 286 288 285 281 281 282 282 283 283 281 280 280 280 279
12 6 359 359 0 359 356 356 355 354 354 353 352 352 352 351 348 347 347 348 347 347 348 350 351 352 354 354 353 353 353 353 351 347 344 341 336 332 329 328 326 324 320 317 314 311 310 309 308 305 302 297 294 294 292 287 284 284 284 285 288 289 288 287 287 284 281 279 278 277 278 279 278 279
5 2 357 356 357 357 356 356 356 355 353 352 351 351 351 350 348 346 345 343 341 340 341 343 344 344 346 348 349 349 349 349 349 348 347 344 342 338 335 333 331 329 324 320 318 317 314 312 309 306 303 299 297 297 294 289 285 285 286 286 281 275 280 289 293 291 287 283 278 275 275 274 272 273
356 356 352 351 352 352 352 352 353 352 352 350 349 348 348 347 347 345 343 341 340 338 338 338 338 338 338 339 341 342 342 343 344 344 343 342 340 338 336 335 333 332 329 325 324 322 318 314 310 307 303 299 297 296 294 291 290 292 293 294 293 292 294 296 296 296 296 295 289 284 280 276 274 275
349 348 347 346 346 346 345 346 347 348 348 347 346 344 344 342 342 342 340 338 338 337 336 335 335 334 334 335 335 335 335 337 338 337 337 338 337 335 334 334 333 333 332 329 328 327 324 320 317 313 311 309 306 304 302 300 299 299 299 300 302 304 305 302 300 301 305 304 300 298 293 285 282 282
Height
1546 1548 1550 1551 1552 1553 1554 1556 1557 1558 1559 1560 1561 1562 1563 1564 1564 1564 1563 1563 1564 1564 1565 1566 1566 1565 1565 1565 1565 1566 1566 1565 1565 1565 1565 1564 1564 1565 1565 1565 1566 1566 1567 1567 1568 1568 1569 1570 1571 1572 1573 1574 1575 1576 1577 1578 1579 1579 1580 1580 1581 1581 1582 1582 1582 1582 1583 1583 1584 1584 1584 1585 1585 1586
1544 1545 1547 1549 1550 1551 1552 1553 1554 1555 1556 1557 1559 1559 1561 1562 1563 1563 1562 1562 1562 1563 1563 1564 1565 1564 1564 1564 1564 1564 1564 1564 1564 1564 1563 1563 1563 1563 1563 1564 1564 1564 1565 1565 1566 1566 1567 1567 1568 1569 1570 1571 1572 1574 1575 1576 1577 1578 1578 1578 1579 1579 1580 1580 1580 1580 1581 1581 1582 1582 1583 1583 1583 1583
1542 1543 1544 1546 1547 1548 1550 1551 1552 1553 1554 1555 1556 1557 1558 1559 1560 1561 1561 1560 1561 1562 1562 1562 1563 1563 1564 1563 1562 1562 1562 1563 1563 1563 1562 1562 1561 1561 1562 1562 1562 1562 1562 1563 1564 1564 1564 1565 1566 1567 1567 1569 1570 1571 1572 1574 1575 1575 1576 1576 1577 1577 1578 1579 1578 1578 1579 1579 1580 1580 1580 1580 1580 1580
1540 1541 1542 1543 1544 1546 1547 1548 1549 1550 1551 1552 1553 1554 1555 1556 1557 1558 1559 1558 1558 1559 1560 1560 1561 1562 1562 1562 1561 1561 1561 1560 1561 1562 1561 1561 1560 1560 1560 1560 1560 1560 1560 1561 1561 1562 1562 1562 1563 1564 1565 1566 1566 1567 1569 1570 1571 1572 1573 1574 1574 1575 1575 1576 1576 1576 1576 1577 1577 1578 1578 1577 1577 1577
1537 1539 1540 1541 1542 1543 1544 1546 1547 1548 1548 1549 1550 1551 1552 1553 1554 1555 1555 1556 1556 1557 1557 1558 1558 1559 1560 1560 1559 1559 1559 1559 1559 1559 1560 1559 1559 1558 1558 1557 1558 1558 1559 1559 1559 1559 1560 1560 1560 1561 1562 1563 1563 1564 1565 1566 1567 1568 1569 1570 1571 1571 1572 1572 1573 1573 1574 1574 1574 1574 1574 1574 1574 1573
1535 1536 1537 1539 1540 1541 1542 1543 1544 1545 1546 1547 1548 1549 1549 1550 1551 1552 1552 1553 1553 1554 1554 1555 1555 1555 1556 1557 1557 1557 1557 1557 1556 1556 1557 1557 1557 1556 1556 1555 1556 1556 1557 1557 1557 1557 1558 1558 1558 1558 1559 1560 1560 1561 1562 1563 1564 1565 1565 1566 1567 1567 1568 1568 1569 1569 1570 1570 1570 1570 1570 1571 1570 1570
1532 1533 1534 1536 1537 1539 1539 1539 1541 1542 1543 1544 1545 1546 1547 1547 1548 1549 1550 1550 1550 1551 1551 1552 1552 1553 1553 1553 1554 1554 1554 1554 1554 1554 1554 1554 1554 1554 1553 1553 1553 1554 1555 1555 1555 1555 1556 1556 1556 1556 1557 1557 1558 1558 1559 1560 1560 1561 1562 1562 1563 1563 1564 1564 1565 1565 1566 1566 1566 1566 1566 1567 1567 1568
1529 1530 1531 1532 1534 1535 1536 1537 1538 1539 1539 1541 1542 1543 1544 1545 1545 1546 1547 1547 1547 1548 1548 1549 1550 1550 1550 1550 1551 1552 1551 1551 1551 1551 1551 1551 1551 1552 1551 1551 1551 1551 1552 1553 1553 1553 1554 1554 1554 1555 1555 1555 1555 1556 1556 1557 1557 1558 1558 1559 1560 1560 1560 1561 1561 1562 1562 1562 1562 1563 1563 1563 1564 1564
1526 1527 1528 1530 1531 1532 1533 1534 1535 1536 1536 1537 1538 1539 1541 1542 1543 1543 1543 1544 1544 1545 1545 1545 1546 1547 1548 1548 1548 1549 1549 1549 1548 1548 1548 1548 1548 1549 1549 1549 1549 1549 1549 1550 1550 1550 1551 1551 1552 1552 1552 1553 1553 1553 1553 1553 1554 1554 1555 1555 1556 1557 1557 1558 1558 1558 1558 1558 1558 1559 1559 1559 1560 1560
1524 1525 1526 1527 1528 1529 1530 1531 1532 1533 1534 1534 1535 1536 1537 1539 1540 1540 1540 1541 1542 1542 1542 1542 1543 1543 1544 1545 1545 1545 1546 1546 1546 1545 1545 1545 1545 1545 1545 1546 1546 1546 1546 1547 1547 1548 1548 1549 1549 1549 1550 1550 1550 1550 1550 1550 1550 1551 1552 1552 1552 1553 1553 1553 1554 1554 1554 1554 1555 1555 1555 1555 1556 1556
1521 1522 1523 1524 1526 1527 1527 1529 1529 1531 1532 1531 1532 1533 1534 1535 1536 1537 1537 1538 1539 1539 1539 1539 1539 1540 1540 1541 1541 1542 1543 1543 1543 1543 1543 1542 1542 1541 1541 1542 1543 1543 1543 1543 1544 1544 1545 1545 1546 1546 1546 1546 1546 1546 1546 1546 1547 1547 1548 1548 1549 1549 1549 1549 1549 1549 1550 1550 1550 1551 1551 1551 1552 1552
1518 1519 1520 1521 1522 1524 1525 1526 1527 1528 1529 1528 1528 1529 1530 1531 1532 1533 1534 1535 1536 1536 1537 1537 1537 1537 1537 1537 1538 1539 1539 1539 1539 1539 1539 1540 1539 1539 1538 1538 1540 1540 1540 1539 1540 1540 1541 1541 1542 1542 1542 1542 1541 1542 1542 1542 1542 1543 1543 1544 1544 1545 1545 1545 1545 1545 1545 1546 1546 1546 1547 1547 1548 1548
1515 1516 1517 1518 1519 1521 1522 1523 1524 1524 1525 1525 1526 1526 1527 1528 1529 1529 1530 1532 1533 1534 1534 1534 1534 1535 1535 1535 1536 1536 1535 1535 1535 1535 1536 1536 1537 1537 1536 1535 1535 1536 1537 1536 1536 1536 1536 1537 1539 1538 1538 1537 1537 1538 1537 1537 1537 1538 1539 1539 1539 1540 1540 1540 1540 1541 1541 1541 1541 1542 1542 1543 1543 1544
1512 1513 1514 1515 1516 1517 1518 1519 1520 1521 1522 1522 1523 1523 1524 1525 1526 1526 1527 1529 1530 1531 1531 1531 1532 1532 1532 1532 1533 1533 1533 1532 1532 1533 1533 1533 1533 1534 1534 1533 1532 1531 1532 1533 1533 1532 1532 1532 1534 1534 1533 1533 1533 1533 1532 1532 1532 1533 1534 1534 1534 1534 1535 1535 1535 1536 1536 1536 1536 1537 1537 1538 1538 1539
1509 1509 1510 1512 1513 1514 1515 1516 1517 1518 1519 1519 1520 1521 1522 1523 1523 1523 1524 1525 1526 1527 1528 1528 1528 1528 1528 1528 1529 1530 1530 1530 1530 1529 1530 1530 1530 1531 1531 1530 1529 1528 1528 1529 1529 1529 1529 1528 1528 1528 1528 1528 1528 1527 1527 1528 1529 1529 1530 1530 1529 1529 1530 1530 1531 1531 1531 1531 1531 1532 1532 1533 1533 1534
1506 1506 1507 1508 1509 1510 1511 1512 1513 1514 1515 1516 1517 1517 1518 1519 1519 1520 1521 1522 1522 1523 1524 1524 1524 1524 1524 1524 1525 1526 1527 1528 1527 1526 1527 1527 1527 1527 1527 1527 1527 1527 1526 1526 1526 1526 1527 1526 1524 1522 1522 1523 1522 1522 1523 1524 1525 1525 1526 1525 1525 1525 1525 1525 1526 1526 1526 1527 1527 1527 1527 1528 1528 1529
1505 1504 1505 1505 1506 1507 1508 1509 1510 1511 1511 1512 1513 1514 1514 1515 1515 1516 1516 1517 1518 1519 1520 1520 1520 1520 1521 1520 1521 1523 1525 1525 1524 1523 1523 1523 1523 1524 1523 1523 1524 1525 1524 1523 1522 1522 1523 1523 1521 1518 1518 1518 1517 1517 1518 1520 1520 1521 1521 1521 1520 1520 1520 1520 1521 1521 1522 1522 1523 1523 1523 1523 1524 1524
1503 1503 1503 1504 1504 1504 1505 1506 1507 1508 1508 1509 1509 1509 1510 1510 1511 1511 1511 1512 1513 1514 1514 1515 1515 1516 1517 1517 1518 1521 1522 1521 1520 1520 1519 1520 1520 1520 1520 1520 1521 1522 1520 1519 1519 1518 1517 1518 1518 1516 1515 1514 1514 1513 1513 1514 1515 1515 1516 1516 1516 1515 1515 1515 1516 1516 1516 1517 1517 1518 1518 1518 1519 1519
1500 1500 1501 1501 1502 1502 1502 1503 1503 1504 1506 1506 1507 1507 1506 1506 1506 1506 1506 1507 1508 1509 1509 1509 1510 1511 1512 1513 1514 1516 1517 1517 1516 1516 1516 1516 1516 1516 1515 1515 1516 1517 1517 1516 1515 1513 1512 1514 1514 1512 1512 1513 1511 1509 1509 1508 1509 1509 1510 1510 1510 1510 1510 1510 1510 1510 1511 1512 1512 1513 1513 1513 1513 1513
1498 1498 1498 1499 1499 1500 1500 1501 1501 1501 1502 1502 1503 1504 1503 1503 1503 1503 1503 1503 1503 1504 1504 1504 1505 1506 1507 1508 1509 1510 1512 1512 1512 1512 1511 1512 1512 1511 1510 1510 1510 1511 1512 1512 1512 1509 1508 1509 1509 1508 1508 1509 1508 1506 1505 1504 1503 1504 1505 1505 1505 1505 1505 1505 1505 1505 1506 1507 1507 1508 1508 1508 1508 1508
1496 1496 1496 1497 1498 1498 1499 1499 1499 1498 1498 1498 1499 1499 1499 1499 1499 1499 1499 1499 1498 1498 1498 1499 1500 1500 1501 1502 1503 1504 1505 1506 1507 1507 1506 1507 1508 1507 1506 1506 1505 1506 1507 1508 1508 1506 1503 1503 1504 1504 1504 1505 1504 1503 1502 1500 1499 1499 1499 1500 1500 1500 1500 1500 1500 1500 1501 1502 1502 1503 1503 1504 1504 1504
1494 1494 1494 1493 1494 1494 1495 1495 1495 1494 1493 1493 1494 1495 1495 1495 1494 1495 1495 1495 1495 1494 1494 1494 1494 1494 1495 1496 1497 1497 1498 1500 1502 1502 1501 1503 1504 1503 1502 1501 1500 1500 1501 1503 1504 1501 1499 1499 1499 1499 1500 1500 1499 1498 1497 1496 1496 1494 1494 1494 1495 1496 1496 1495 1496 1496 1496 1497 1497 1498 1498 1499 1500 1500
1491 1491 1491 1490 1489 1489 1490 1490 1490 1490 1489 1489 1489 1490 1490 1490 1491 1492 1492 1492 1492 1491 1491 1491 1490 1490 1490 1491 1491 1491 1492 1494 1495 1495 1496 1498 1498 1497 1496 1496 1496 1494 1494 1497 1499 1496 1495 1495 1494 1494 1495 1494 1493 1493 1492 1492 1492 1490 1489 1488 1489 1490 1491 1491 1491 1491 1491 1492 1492 1492 1493 1494 1494 1493
1487 1487 1487 1487 1486 1485 1485 1485 1485 1484 1484 1484 1484 1484 1485 1486 1487 1488 1488 1488 1487 1488 1488 1488 1487 1486 1486 1486 1486 1486 1486 1487 1488 1489 1490 1491 1491 1491 1490 1490 1490 1488 1487 1492 1494 1490 1489 1491 1489 1489 1490 1488 1487 1488 1488 1487 1487 1486 1485 1484 1483 1484 1485 1485 1485 1486 1486 1486 1487 1487 1488 1488 1488 1486
1485 1484 1485 1485 1483 1482 1481 1481 1480 1479 1479 1478 1478 1478 1479 1480 1481 1482 1482 1482 1483 1483 1483 1484 1484 1483 1483 1483 1482 1482 1482 1482 1482 1482 1483 1483 1484 1484 1484 1484 1484 1481 1481 1486 1488 1485 1484 1485 1484 1484 1485 1483 1482 1483 1483 1483 1482 1482 1482 1481 1479 1479 1479 1480 1480 1481 1481 1482 1482 1482 1483 1483 1482 1481
1482 1481 1481 1481 1480 1479 1478 1477 1476 1475 1474 1473 1473 1473 1474 1475 1475 1476 1477 1477 1478 1479 1480 1480 1480 1480 1479 1479 1478 1478 1478 1478 1478 1477 1476 1476 1477 1477 1477 1477 1477 1476 1477 1480 1482 1480 1478 1478 1478 1479 1479 1478 1478 1478 1478 1478 1477 1478 1478 1477 1475 1475 1475 1475 1475 1475 1476 1476 1476 1477 1478 1478 1477 1476
1479 1478 1478 1477 1477 1476 1475 1474 1473 1471 1470 1469 1469 1469 1470 1471 1471 1472 1472 1473 1474 1474 1475 1476 1476 1475 1475 1475 1474 1474 1474 1473 1473 1472 1471 1470 1470 1470 1470 1471 1470 1470 1472 1475 1475 1474 1473 1472 1472 1473 1473 1474 1474 1473 1472 1472 1473 1473 1473 1472 1471 1471 1470 1470 1470 1470 1470 1470 1470 1471 1472 1472 1471 1471
1476 1476 1475 1474 1474 1473 1473 1472 1471 1469 1468 1467 1467 1467 1467 1468 1468 1468 1468 1469 1470 1470 1471 1471 1471 1471 1471 1471 1470 1469 1469 1469 1468 1467 1466 1466 1465 1465 1465 1466 1466 1466 1467 1468 1468 1467 1467 1467 1466 1467 1468 1469 1468 1467 1467 1468 1468 1468 1469 1469 1468 1467 1466 1466 1466 1466 1466 1467 1466 1466 1466 1465 1465 1465
1474 1474 1473 1472 1471 1471 1471 1470 1469 1468 1467 1466 1465 1465 1465 1466 1466 1466 1466 1466 1467 1467 1467 1468 1468 1467 1467 1466 1466 1465 1465 1465 1464 1463 1462 1461 1461 1461 1461 1461 1461 1460 1460 1461 1462 1462 1462 1462 1461 1462 1463 1463 1464 1464 1464 1464 1464 1464 1464 1464 1464 1464 1463 1462 1462 1462 1463 1463 1463 1463 1462 1462 1461 1460
1473 1472 1471 1471 1470 1469 1468 1467 1467 1466 1465 1464 1464 1464 1464 1464 1463 1463 1463 1463 1464 1464 1465 1465 1465 1464 1464 1463 1462 1462 1461 1460 1460 1460 1459 1457 1457 1458 1458 1457 1456 1456 1455 1455 1456 1457 1457 1457 1457 1458 1457 1457 1459 1461 1460 1460 1460 1459 1459 1460 1460 1460 1459 1458 1458 1457 1457 1457 1457 1457 1457 1458 1458 1456
1472 1471 1471 1470 1469 1468 1467 1466 1465 1464 1463 1463 1462 1462 1462 1461 1461 1461 1461 1461 1461 1462 1462 1462 1461 1461 1460 1460 1459 1459 1458 1457 1456 1457 1456 1454 1453 1455 1456 1453 1450 1450 1451 1451 1452 1452 1453 1452 1452 1453 1452 1452 1453 1454 1455 1455 1454 1452 1453 1454 1454 1454 1455 1455 1454 1453 1452 1452 1452 1451 1451 1451 1452 1451
1472 1472 1471 1470 1469 1468 1467 1466 1465 1464 1463 1462 1461 1461 1460 1460 1460 1459 1459 1459 1459 1459 1459 1458 1458 1458 1457 1457 1456 1456 1455 1454 1453 1454 1453 1451 1450 1452 1452 1448 1444 1444 1445 1446 1446 1447 1447 1447 1447 1448 1447 1447 1447 1448 1449 1449 1447 1446 1447 1448 1448 1448 1449 1449 1450 1449 1449 1448 1446 1445 1445 1445 1445 1445
1474 1474 1472 1470 1469 1468 1466 1465 1465 1464 1463 1462 1461 1460 1460 1459 1458 1458 1458 1457 1457 1457 1456 1456 1455 1455 1454 1454 1453 1452 1451 1450 1450 1450 1450 1448 1446 1448 1447 1444 1440 1439 1440 1441 1441 1441 1441 1442 1441 1441 1441 1441 1442 1443 1443 1442 1441 1441 1442 1442 1442 1443 1443 1443 1444 1444 1444 1443 1442 1440 1440 1439 1439 1439
1476 1476 1474 1472 1470 1468 1467 1465 1464 1464 1463 1462 1461 1460 1459 1459 1458 1457 1456 1456 1455 1454 1454 1453 1453 1452 1451 1450 1450 1449 1447 1447 1446 1446 1445 1444 1443 1443 1443 1440 1438 1437 1437 1437 1437 1437 1437 1436 1435 1434 1435 1435 1435 1435 1436 1435 1434 1436 1437 1437 1437 1437 1437 1438 1438 1437 1437 1438 1437 1436 1434 1433 1434 1434
1476 1476 1475 1473 1471 1470 1468 1467 1466 1465 1463 1462 1461 1461 1460 1459 1458 1457 1456 1455 1454 1453 1453 1452 1451 1450 1449 1448 1447 1446 1445 1444 1443 1443 1442 1441 1440 1440 1439 1437 1436 1435 1435 1434 1433 1434 1434 1432 1430 1429 1429 1429 1428 1428 1428 1429 1430 1431 1432 1432 1432 1431 1431 1431 1432 1431 1431 1432 1432 1431 1429 1428 1429 1430
1476 1475 1475 1474 1472 1471 1469 1468 1467 1466 1465 1464 1462 1461 1460 1459 1458 1457 1456 1455 1454 1453 1452 1451 1450 1449 1448 1446 1445 1444 1443 1442 1441 1440 1439 1438 1437 1436 1435 1434 1433 1432 1431 1430 1429 1430 1430 1429 1427 1425 1423 1423 1423 1422 1422 1424 1426 1427 1426 1426 1426 1426 1426 1426 1426 1426 1425 1426 1427 1426 1425 1423 1423 1425
1477 1476 1475 1475 1473 1472 1471 1470 1469 1468 1466 1465 1464 1462 1461 1460 1459 1458 1457 1455 1454 1453 1451 1450 1449 1448 1447 1445 1444 1443 1442 1441 1439 1438 1437 1436 1435 1433 1432 1431 1430 1429 1428 1427 1426 1426 1426 1426 1425 1422 1420 1419 1418 1416 1416 1419 1423 1423 1421 1421 1421 1422 1422 1421 1422 1422 1421 1421 1422 1421 1420 1419 1419 1420
1479 1478 1477 1476 1475 1474 1473 1472 1470 1469 1468 1467 1465 1464 1462 1461 1460 1458 1457 1456 1454 1453 1452 1450 1449 1448 1446 1445 1443 1442 1441 1439 1438 1437 1436 1435 1433 1432 1431 1429 1428 1427 1426 1425 1424 1423 1423 1423 1422 1420 1419 1418 1417 1415 1414 1415 1417 1417 1417 1416 1416 1416 1417 1418 1418 1417 1417 1417 1417 1417 1416 1416 1415 1415
1480 1479 1478 1478 1476 1475 1474 1473 1472 1470 1469 1468 1466 1465 1463 1462 1460 1459 1457 1456 1455 1453 1452 1450 1449 1447 1446 1445 1443 1441 1440 1438 1437 1436 1435 1433 1432 1430 1429 1428 1426 1425 1424 1423 1422 1422 1421 1420 1419 1418 1417 1416 1416 1415 1413 1412 1412 1413 1414 1413 1412 1412 1413 1413 1413 1413 1413 1413 1413 1413 1412 1411 1411 1410
1482 1481 1480 1479 1478 1477 1475 1474 1473 1471 1470 1468 1467 1465 1464 1462 1461 1459 1458 1456 1455 1453 1452 1450 1449 1447 1446 1444 1443 1441 1439 1438 1436 1435 1434 1432 1431 1429 1428 1426 1425 1423 1422 1421 1420 1420 1418 1417 1416 1416 1415 1414 1413 1413 1412 1410 1410 1411 1411 1410 1410 1410 1410 1410 1410 1409 1409 1409 1409 1409 1408 1407 1407 1407
1483 1482 1481 1479 1478 1477 1476 1475 1473 1472 1470 1469 1467 1465 1464 1462 1461 1459 1457 1456 1454 1453 1452 1450 1449 1447 1445 1444 1442 1441 1439 1437 1436 1434 1433 1432 1430 1429 1427 1426 1424 1422 1421 1419 1419 1418 1416 1415 1414 1414 1413 1412 1411 1410 1410 1409 1409 1409 1408 1408 1408 1408 1408 1407 1407 1406 1405 1405 1406 1405 1404 1403 1403 1402
1483 1482 1481 1479 1478 1477 1476 1474 1473 1472 1470 1469 1467 1466 1464 1462 1461 1459 1457 1456 1454 1453 1451 1450 1448 1447 1445 1444 1442 1440 1439 1437 1435 1434 1432 1431 1430 1428 1427 1425 1423 1422 1420 1419 1417 1416 1414 1413 1413 1412 1411 1410 1409 1409 1408 1407 1407 1406 1406 1406 1407 1407 1405 1404 1404 1403 1402 1402 1402 1401 1400 1400 1400 1398
1483 1482 1481 1479 1478 1477 1475 1474 1473 1471 1470 1468 1467 1465 1464 1462 1461 1459 1458 1456 1455 1453 1451 1450 1448 1446 1445 1443 1442 1440 1438 1437 1435 1433 1432 1430 1429 1427 1426 1424 1423 1421 1420 1418 1417 1415 1413 1412 1411 1411 1410 1409 1408 1407 1406 1405 1405 1405 1404 1404 1405 1404 1402 1401 1400 1399 1399 1398 1398 1398 1397 1397 1396 1395
1483 1482 1481 1479 1478 1476 1475 1474 1472 1471 1469 1468 1466 1465 1463 1462 1460 1459 1457 1456 1454 1453 1451 1449 1448 1446 1444 1443 1441 1440 1438 1436 1435 1433 1432 1430 1428 1427 1425 1423 1422 1420 1419 1417 1416 1414 1413 1412 1410 1409 1408 1407 1406 1406 1405 1404 1403 1402 1402 1401 1400 1399 1399 1398 1396 1395 1395 1394 1394 1394 1394 1393 1392 1391
1483 1481 1480 1479 1477 1476 1474 1473 1471 1470 1469 1467 1466 1464 1463 1461 1459 1458 1457 1455 1453 1452 1450 1448 1447 1445 1444 1442 1440 1439 1437 1436 1434 1433 1431 1430 1428 1427 1425 1423 1422 1420 1418 1416 1415 1413 1412 1411 1410 1408 1407 1406 1405 1404 1403 1402 1401 1400 1399 1398 1397 1396 1395 1394 1393 1393 1392 1391 1390 1390 1390 1389 1388 1387